Wind_Speed
2 1 1 2 1 4 5 7 8 8 10 11 10 10 10 11 11 10 10 11 12 11 11 9 7 14 12 12 12 11 11 11 13 15 16 14 12 14 14 14 14 13 14
5 3 2 3 1 4 5 6 7 8 9 10 10 10 10 11 12 10 11 11 11 12 12 11 6 9 12 12 11 12 12 12 12 13 14 13 12 11 11 11 13 13 13
5 5 4 3 1 4 5 6 7 7 7 8 9 9 10 11 10 11 12 12 12 13 13 13 10 10 13 12 11 12 12 12 13 12 13 13 12 11 9 9 10 11 11
7 6 6 3 0 2 4 5 6 7 8 9 9 9 11 11 7 11 12 12 13 14 13 14 11 11 13 12 12 13 12 11 12 13 12 13 11 11 9 7 8 8 8
6 7 5 3 1 2 3 3 5 7 8 10 10 9 9 8 8 6 12 14 14 15 14 14 13 13 13 13 13 13 12 12 11 12 12 12 11 9 8 6 6 7 7
9 7 5 2 0 2 2 4 6 7 8 10 11 11 10 8 5 7 15 17 16 16 16 15 14 14 14 13 14 13 13 11 10 11 11 10 11 10 9 9 7 7 6
10 9 5 2 2 2 3 4 5 6 7 10 11 10 10 9 8 6 9 21 19 19 17 15 15 13 14 14 13 12 12 12 11 10 8 8 9 10 10 10 10 9 8
12 11 9 5 3 2 2 4 5 5 6 9 11 11 10 10 10 8 8 11 21 18 17 16 15 14 13 13 13 12 12 11 11 10 9 7 6 8 10 10 10 9 9
14 12 10 9 5 1 3 5 6 6 7 8 10 12 13 12 11 10 10 11 18 17 17 16 16 15 15 15 13 13 12 11 11 10 9 7 5 5 7 7 7 7 7
15 12 10 8 8 7 1 3 2 4 7 8 10 10 11 12 12 12 13 13 13 17 16 16 16 16 16 16 14 13 13 13 13 12 11 11 8 5 5 6 6 4 3
19 13 8 8 9 8 5 1 3 5 7 9 11 11 10 10 12 12 12 13 13 15 18 15 15 16 16 16 15 13 13 12 12 12 11 9 8 6 5 4 3 3 2
19 17 10 8 10 10 8 6 4 5 8 13 14 13 11 11 11 11 12 13 14 14 15 16 15 14 14 15 15 15 14 14 13 12 11 9 8 6 4 3 2 2 2
19 18 16 11 9 10 10 10 9 12 4 14 17 15 15 13 13 11 11 12 14 15 15 14 15 16 15 16 16 16 15 15 14 12 12 10 9 8 8 7 6 6 6
25 19 19 14 13 13 11 10 10 15 16 5 15 16 16 15 15 14 13 12 13 14 15 15 13 16 17 15 14 16 17 17 16 15 14 14 13 12 12 11 11 10 10
26 25 23 19 15 15 14 11 11 15 16 9 15 10 14 17 16 18 17 15 13 12 13 15 14 14 17 16 16 17 18 17 17 17 17 16 16 15 16 16 16 14 16
23 21 22 21 19 15 15 12 11 13 14 7 2 8 15 17 16 17 17 16 16 14 13 15 15 15 15 15 16 19 19 18 19 19 19 19 19 20 21 20 20 21 21
22 19 19 20 18 17 14 13 11 11 13 12 7 13 10 18 17 17 17 15 15 15 14 14 15 15 14 14 13 15 18 19 20 21 22 20 19 18 19 21 22 22 21
24 22 18 20 19 20 10 10 12 12 11 11 7 1 10 13 13 20 17 15 14 15 15 16 15 14 15 14 13 15 15 17 18 18 18 19 19 18 19 18 19 20 20
24 24 28 27 29 27 14 9 7 9 12 10 9 2 6 14 19 15 20 16 16 15 16 17 17 16 15 14 14 15 15 17 19 18 17 18 18 19 17 17 20 21 22
25 32 34 32 36 28 15 9 10 13 12 10 10 5 4 8 11 15 16 15 16 20 18 19 19 17 16 15 15 16 15 17 22 23 20 20 20 23 13 16 19 21 19
30 33 32 38 41 40 30 15 5 11 13 12 7 8 6 7 14 14 14 14 16 13 21 21 20 19 17 17 17 16 16 17 19 21 22 20 21 19 18 19 18 21 22
31 29 31 38 39 42 28 11 2 8 12 12 11 7 6 7 10 14 12 14 19 20 22 23 20 19 18 17 16 16 17 20 17 14 16 18 19 21 22 20 19 21 21
29 28 26 29 31 25 8 6 8 10 11 11 11 9 9 9 9 14 13 16 18 19 20 18 18 19 19 19 17 18 15 14 13 15 17 18 18 19 21 19 19 19 19
28 30 25 27 30 20 12 7 10 12 13 14 13 10 10 11 13 12 14 15 16 18 17 16 16 18 23 20 15 13 12 13 13 16 18 18 18 19 20 20 21 21 20
29 29 40 36 24 22 4 10 12 13 14 13 14 11 12 13 14 17 14 15 17 18 16 17 16 14 15 16 14 12 14 14 13 13 14 15 16 16 17 18 21 21 22
31 28 34 35 42 9 4 8 13 17 18 15 14 14 15 15 17 19 19 17 17 18 19 19 18 14 14 18 15 14 14 14 15 15 14 14 14 15 17 19 21 20 21
Wind_Direction
92 139 114 335 118 167 164 166 163 151 139 137 135 137 143 155 156 147 144 144 146 142 130 127 136 159 146 149 139 135 134 130 120 120 119 115 111 108 108 111 116 113 110
48 53 33 331 195 193 190 186 175 167 149 141 137 136 141 155 164 158 155 148 140 138 138 135 125 145 148 149 143 138 138 132 127 126 123 119 114 112 111 113 111 110 112
49 58 50 9 238 200 195 195 193 183 164 139 134 125 133 144 159 161 159 158 148 145 147 146 165 153 151 149 145 145 142 134 135 133 122 118 119 113 106 109 108 108 113
38 41 48 41 10 183 175 173 179 180 171 154 140 138 125 117 153 174 162 165 161 152 153 152 158 153 154 147 143 147 143 137 140 136 130 124 117 109 103 105 110 113 116
33 38 42 38 28 161 181 164 169 175 175 164 157 153 140 129 122 149 170 172 169 157 157 158 156 153 151 147 141 145 142 140 138 129 123 119 113 111 113 121 118 114 116
34 40 41 36 359 173 178 158 156 166 170 169 167 164 159 142 140 105 171 169 168 161 157 161 156 155 152 151 145 144 143 142 136 133 126 121 118 117 112 112 121 121 120
18 17 22 52 298 233 190 172 168 165 174 177 173 164 164 155 144 134 135 171 161 157 155 159 155 155 156 150 148 154 150 149 141 137 131 128 128 124 119 114 105 105 112
7 12 18 359 267 250 214 194 190 191 191 194 190 178 175 167 157 151 145 147 160 156 154 156 156 156 160 150 156 148 154 154 150 148 143 140 143 134 127 123 120 118 105
355 358 6 12 18 2 229 211 193 205 209 216 200 199 195 188 175 163 154 150 154 157 157 160 160 162 161 159 162 159 161 165 161 156 153 146 151 149 134 125 116 109 108
5 357 356 2 7 56 99 227 231 215 217 223 218 213 204 199 195 179 166 161 147 158 164 166 166 168 167 168 171 167 167 163 167 167 162 156 156 158 146 133 120 103 108
13 6 2 4 20 30 49 2 337 270 242 229 224 222 221 204 197 195 182 176 168 166 172 171 175 176 178 175 178 177 177 172 172 173 170 166 163 158 142 132 123 110 91
19 27 20 18 27 32 35 32 8 319 276 244 221 213 221 218 208 201 192 184 181 175 179 183 185 185 189 185 185 188 187 185 188 189 182 183 182 182 179 186 206 225 215
20 25 22 24 29 26 18 14 10 323 288 256 221 215 203 213 215 205 201 194 186 186 186 189 191 194 196 198 194 196 200 201 204 206 210 209 214 218 218 225 234 241 250
23 19 16 10 14 8 4 356 358 345 0 219 198 209 213 207 206 209 204 196 189 187 194 200 198 197 204 204 209 208 209 213 217 217 222 231 237 243 242 238 242 249 255
25 18 13 0 360 5 3 358 351 2 7 44 216 216 219 210 209 203 200 199 192 193 191 195 201 200 204 209 216 220 217 219 227 229 234 238 244 250 254 254 249 251 254
19 15 8 7 359 352 0 2 355 2 9 27 312 241 220 209 208 213 208 202 199 197 198 195 199 203 208 218 225 224 226 230 230 241 238 248 251 254 258 257 262 262 262
3 3 1 359 2 347 350 3 0 2 3 357 358 186 226 215 209 209 213 206 208 204 206 209 206 202 208 213 217 217 228 236 241 243 246 248 250 256 251 254 259 263 263
355 353 353 344 329 333 305 359 359 2 356 4 346 93 211 203 209 219 211 209 210 216 213 217 216 213 213 213 224 226 228 239 243 242 243 246 248 248 251 257 261 262 265
344 351 346 342 338 331 306 323 343 354 353 350 357 10 188 209 219 207 213 215 215 224 223 228 230 226 218 228 217 231 246 251 248 243 251 250 246 245 250 261 261 263 264
345 353 350 341 336 323 302 302 341 351 356 347 330 341 172 200 210 206 213 224 224 225 232 232 237 238 235 237 237 247 255 254 250 255 255 254 253 257 256 272 273 271 267
343 349 341 342 332 312 299 261 312 332 337 348 326 313 299 185 186 196 202 216 215 238 236 236 237 237 240 240 242 254 261 261 268 262 249 249 259 269 264 270 270 273 271
345 338 334 331 337 333 297 244 260 313 320 340 328 290 283 268 229 195 219 208 233 235 232 236 239 238 233 237 249 258 259 269 267 257 244 251 255 260 263 262 265 264 267
332 324 318 319 332 349 7 20 355 326 315 324 331 302 274 265 255 234 228 229 234 235 229 227 228 235 240 245 252 262 256 249 248 247 251 253 254 262 266 271 273 271 266
315 318 289 292 307 329 312 340 340 330 326 327 322 308 273 261 260 259 241 230 231 227 225 228 234 238 239 245 255 232 240 250 257 259 261 264 260 263 270 276 278 278 276
308 315 311 304 300 323 333 353 344 336 327 320 318 295 286 274 257 252 250 243 232 229 227 224 234 237 237 233 231 238 242 250 257 259 259 256 259 264 271 272 275 278 275
317 335 337 334 329 339 7 346 338 341 331 329 315 300 292 283 267 248 243 244 244 233 222 226 233 238 244 234 228 239 243 248 248 250 254 260 266 276 277 277 276 277 279
Height
5891 5890 5889 5888 5887 5888 5889 5889 5890 5889 5890 5891 5892 5892 5893 5894 5894 5895 5896 5897 5898 5899 5900 5901 5903 5904 5906 5907 5908 5909 5910 5911 5911 5911 5910 5912 5912 5912 5912 5913 5913 5913 5913
5891 5890 5889 5889 5888 5888 5888 5889 5890 5890 5891 5892 5892 5892 5893 5893 5894 5895 5896 5897 5898 5900 5900 5902 5904 5906 5907 5908 5909 5910 5912 5913 5913 5914 5913 5913 5914 5915 5915 5915 5915 5915 5915
5890 5890 5889 5889 5888 5888 5888 5889 5890 5890 5891 5892 5892 5891 5892 5892 5894 5895 5896 5897 5898 5900 5902 5904 5906 5908 5908 5909 5910 5912 5913 5914 5914 5915 5915 5915 5916 5916 5917 5917 5917 5917 5917
5891 5890 5890 5889 5889 5888 5888 5888 5890 5891 5891 5892 5891 5891 5892 5893 5894 5894 5895 5897 5898 5900 5902 5905 5906 5908 5909 5910 5912 5913 5914 5915 5916 5916 5917 5917 5918 5917 5918 5918 5918 5919 5919
5893 5891 5891 5890 5890 5889 5889 5889 5889 5890 5891 5891 5891 5891 5891 5893 5894 5895 5895 5897 5899 5900 5902 5905 5906 5908 5909 5911 5913 5914 5915 5917 5917 5918 5918 5918 5919 5919 5919 5920 5920 5921 5921
5895 5893 5892 5891 5891 5890 5890 5890 5890 5890 5891 5891 5892 5892 5892 5894 5894 5894 5895 5898 5899 5901 5902 5904 5906 5908 5909 5911 5913 5915 5916 5917 5918 5919 5919 5920 5920 5921 5921 5921 5921 5921 5922
5895 5894 5893 5892 5891 5891 5891 5891 5892 5892 5892 5892 5892 5893 5893 5894 5895 5895 5896 5898 5899 5901 5902 5904 5905 5908 5910 5912 5914 5915 5917 5918 5918 5919 5921 5921 5921 5922 5923 5923 5923 5923 5923
5896 5894 5892 5892 5891 5892 5892 5892 5892 5893 5893 5893 5892 5892 5893 5894 5895 5895 5896 5897 5899 5901 5902 5903 5905 5907 5910 5912 5915 5916 5917 5918 5919 5920 5921 5923 5924 5924 5924 5924 5924 5924 5924
5897 5895 5893 5892 5891 5891 5892 5891 5892 5893 5893 5894 5892 5892 5892 5893 5894 5894 5896 5897 5899 5900 5902 5903 5904 5907 5909 5912 5914 5916 5917 5918 5919 5921 5922 5924 5925 5926 5926 5926 5926 5926 5925
5897 5895 5894 5893 5892 5891 5889 5890 5892 5893 5893 5893 5893 5892 5892 5892 5892 5894 5895 5897 5898 5899 5902 5903 5904 5906 5908 5911 5914 5915 5917 5918 5920 5921 5922 5923 5925 5926 5927 5927 5926 5926 5926
5898 5895 5894 5893 5892 5891 5891 5890 5889 5890 5891 5891 5891 5891 5892 5892 5892 5893 5894 5896 5897 5898 5901 5903 5905 5906 5908 5910 5913 5915 5917 5919 5920 5921 5922 5923 5925 5926 5926 5927 5927 5927 5927
5899 5897 5895 5894 5893 5892 5891 5889 5887 5887 5887 5886 5886 5887 5890 5891 5892 5892 5893 5894 5897 5898 5900 5902 5904 5906 5908 5910 5913 5915 5917 5918 5919 5921 5922 5923 5924 5925 5925 5926 5926 5927 5927
5902 5900 5898 5897 5895 5893 5891 5890 5888 5885 5883 5881 5882 5885 5885 5887 5890 5891 5892 5894 5895 5897 5899 5900 5902 5904 5906 5909 5911 5913 5916 5918 5919 5921 5921 5922 5923 5923 5923 5924 5925 5925 5926
5905 5903 5900 5898 5897 5895 5892 5889 5887 5884 5879 5876 5879 5881 5883 5884 5886 5888 5891 5893 5894 5896 5898 5899 5900 5902 5904 5907 5910 5912 5914 5915 5917 5919 5920 5921 5921 5922 5922 5923 5923 5923 5923
5908 5906 5903 5900 5897 5895 5892 5889 5886 5883 5879 5876 5877 5878 5880 5881 5884 5885 5887 5889 5892 5894 5896 5897 5899 5901 5903 5905 5907 5909 5911 5913 5915 5916 5918 5919 5919 5920 5920 5920 5920 5920 5921
5909 5905 5903 5900 5898 5896 5893 5891 5887 5884 5879 5876 5876 5876 5876 5879 5881 5883 5885 5887 5889 5892 5894 5895 5897 5899 5901 5902 5904 5906 5908 5910 5911 5913 5914 5915 5916 5916 5917 5917 5918 5918 5918
5910 5906 5903 5900 5897 5895 5892 5890 5886 5884 5881 5875 5871 5873 5873 5876 5878 5880 5883 5885 5887 5889 5891 5893 5895 5897 5898 5899 5901 5903 5905 5906 5908 5909 5910 5911 5912 5912 5912 5913 5913 5913 5913
5910 5908 5904 5901 5897 5893 5887 5886 5885 5881 5880 5877 5874 5872 5871 5873 5875 5877 5880 5882 5885 5886 5888 5890 5892 5893 5895 5898 5900 5901 5902 5903 5904 5906 5906 5907 5907 5908 5908 5909 5910 5909 5909
5909 5909 5906 5902 5898 5894 5888 5885 5882 5879 5878 5876 5874 5871 5871 5870 5871 5874 5878 5879 5881 5883 5885 5887 5889 5891 5893 5894 5896 5898 5900 5900 5901 5901 5902 5902 5903 5903 5904 5904 5905 5905 5905
5910 5907 5904 5901 5899 5896 5890 5886 5883 5879 5876 5875 5875 5872 5870 5870 5869 5872 5875 5878 5879 5880 5882 5884 5886 5888 5890 5891 5892 5893 5895 5896 5897 5897 5897 5898 5897 5895 5899 5900 5900 5900 5901
5910 5906 5900 5897 5891 5889 5885 5879 5877 5878 5876 5873 5872 5873 5872 5870 5869 5870 5872 5874 5876 5876 5878 5880 5882 5885 5886 5887 5888 5890 5891 5892 5892 5891 5892 5893 5894 5894 5895 5896 5896 5895 5896
5908 5904 5899 5893 5887 5882 5871 5852 5874 5875 5874 5870 5872 5870 5870 5870 5869 5867 5868 5869 5872 5874 5875 5876 5879 5881 5882 5883 5885 5886 5887 5888 5887 5887 5889 5890 5891 5891 5891 5891 5891 5891 5891
5904 5900 5896 5890 5886 5882 5875 5875 5872 5874 5872 5868 5868 5869 5867 5866 5867 5867 5866 5868 5868 5870 5871 5872 5875 5877 5879 5880 5881 5882 5883 5883 5884 5885 5886 5886 5886 5887 5887 5886 5886 5887 5887
5899 5897 5889 5886 5882 5881 5880 5875 5873 5872 5871 5867 5865 5865 5865 5863 5863 5863 5864 5865 5866 5867 5868 5870 5871 5873 5874 5875 5877 5878 5879 5880 5881 5882 5882 5883 5883 5883 5883 5882 5882 5882 5881
5897 5896 5892 5878 5883 5874 5876 5874 5872 5869 5868 5865 5863 5862 5861 5860 5859 5858 5860 5861 5862 5864 5865 5866 5867 5868 5870 5872 5873 5875 5877 5877 5877 5878 5878 5879 5879 5879 5878 5878 5877 5877 5876
5896 5894 5892 5884 5878 5876 5871 5869 5870 5868 5867 5864 5861 5859 5856 5854 5854 5854 5855 5856 5858 5858 5861 5862 5863 5865 5866 5867 5869 5871 5873 5873 5874 5874 5874 5875 5875 5874 5873 5872 5872 5872 5871